Location: El Bakhil
(32.7726°N, 5.5387°W)
Time: 05:07:40
(UTC+00:00)

Cosmos 2219 Rocket - Pass Details

Date: 03 March 2021
Orbit: 826 x 848 km, 71.0° (Epoch: 12 April)

Event Time Altitude Azimuth Distance (km) Brightness Sun altitude
Rises 19:19:23 0° 177° (S) 3,347 5.3 -13.1°
Reaches altitude 10° 19:21:58 10° 169° (S) 2,418 4.5 -13.6°
Maximum altitude 19:27:00 37° 104° (ESE) 1,274 2.6 -14.6°
Drops below altitude 10° 19:32:04 10° 39° (NE) 2,438 4.3 -15.7°
Sets 19:34:40 0° 31° (NNE) 3,378 5.1 -16.3°
